Date,TemperatureHighF,TemperatureAvgF,TemperatureLowF,DewpointHighF,DewpointAvgF,DewpointLowF,HumidityHigh,HumidityAvg,HumidityLow,PressureMaxIn,PressureMinIn,WindSpeedMaxMPH,WindSpeedAvgMPH,GustSpeedMaxMPH,PrecipitationSumIn
2013-1-1,65.8,48.7,36.6,37.1,32.6,28.3,82,57,27,30.34,30.17,6,0,6,0.00
2013-1-2,69.3,49.6,35.8,33.4,29.6,24.8,74,51,22,30.23,30.11,10,0,10,0.00
2013-1-3,71.8,51.3,34.8,36.3,28.6,22.3,72,46,20,30.27,30.15,10,0,10,0.00
2013-1-4,71.3,52.6,39.5,29.5,24.7,19.4,57,36,16,30.38,30.24,5,0,5,0.00
2013-1-5,70.7,50.7,33.7,39.6,29.3,23.3,73,48,19,30.39,30.25,6,0,6,0.00
2013-1-6,57.0,49.1,42.3,44.8,40.2,32.4,88,72,59,30.29,30.11,12,0,12,0.03
2013-1-7,69.7,50.8,37.9,41.7,36.5,31.7,92,63,26,30.19,30.04,12,0,12,0.01
2013-1-8,47.7,40.0,38.4,34.3,31.0,29.8,76,70,61,30.19,30.11,3,0,3,0.00
2013-1-11,57.2,48.4,37.1,28.7,24.3,20.6,62,40,27,30.28,30.10,19,2,19,0.00
2013-1-12,59.0,43.9,30.3,28.4,24.2,18.2,71,48,23,30.26,30.14,9,0,9,0.00
2013-1-13,57.9,44.5,32.9,26.5,22.2,13.6,63,44,23,30.28,30.13,11,0,11,0.00
2013-1-14,56.4,43.5,29.1,19.0,14.3,9.7,54,32,17,30.43,30.23,9,0,9,0.00
2013-1-15,62.9,45.3,30.6,30.4,22.1,17.0,69,43,20,30.56,30.40,9,0,9,0.00
2013-1-16,72.0,51.2,33.8,33.9,30.6,25.5,74,50,23,30.45,30.22,7,0,7,0.00
2013-1-17,83.0,58.6,38.9,37.9,30.6,24.6,67,39,16,30.26,30.12,5,0,5,0.00
2013-1-18,83.8,61.3,45.8,34.9,28.5,23.5,43,30,16,30.23,30.11,7,0,7,0.00
2013-1-19,82.3,61.7,45.9,32.5,26.0,22.2,42,28,12,30.27,30.13,9,0,9,0.00
2013-1-20,84.5,61.1,42.3,31.0,25.1,19.1,45,27,12,30.22,30.06,6,0,6,0.00
2013-1-21,86.3,60.6,40.0,31.9,26.0,19.1,53,30,12,30.18,30.06,10,0,10,0.00
2013-1-22,81.9,62.2,45.7,34.0,25.6,18.4,36,26,13,30.18,30.06,11,0,11,0.00
2013-1-23,78.0,66.9,55.2,48.1,34.8,26.4,69,31,23,30.22,30.08,10,0,10,0.01
2013-1-24,67.7,58.4,52.6,55.8,52.6,47.4,91,82,64,30.29,30.17,7,0,7,1.02
2013-1-25,65.1,59.9,57.7,58.1,55.9,53.1,92,87,76,30.22,30.02,9,0,9,0.42
2013-1-26,68.3,60.0,55.4,59.4,55.6,51.8,93,86,71,30.08,29.96,10,0,10,0.05
2013-1-27,62.1,54.4,44.1,53.2,47.3,36.5,92,78,57,30.10,30.03,16,1,16,0.05
2013-1-28,63.2,48.8,38.5,41.2,32.8,27.1,84,58,29,30.27,30.10,15,0,15,0.00
2013-1-29,63.4,48.4,36.2,41.4,35.3,29.3,81,62,37,30.33,30.22,10,0,10,0.00
2013-1-30,72.1,53.9,38.2,43.7,39.6,33.9,86,62,33,30.43,30.28,9,0,9,0.00
2013-1-31,80.3,59.4,42.1,46.0,41.3,36.5,82,55,26,30.33,30.15,9,0,9,0.00
2013-2-1,80.2,60.7,45.7,49.4,43.0,36.7,76,55,27,30.25,30.16,5,0,11,0.00
2013-2-2,78.4,64.0,52.8,53.5,45.4,41.9,77,53,30,30.27,30.16,6,0,6,0.01
2013-2-3,79.3,64.0,51.9,53.2,48.2,44.6,78,59,33,30.22,30.05,11,0,11,0.00
2013-2-4,73.7,58.0,44.1,53.2,47.1,39.6,88,69,40,30.17,30.04,9,0,9,0.00
2013-2-5,62.0,54.5,50.0,50.5,48.3,45.6,88,80,66,30.18,30.06,7,0,7,0.00
2013-2-6,67.8,56.2,47.3,48.5,46.8,43.3,88,72,48,30.19,30.08,10,0,10,0.00
2013-2-7,65.0,52.4,41.6,49.6,44.5,37.9,89,75,56,30.23,30.07,11,0,11,0.00
2013-2-8,53.0,47.0,39.1,44.9,39.4,35.8,88,75,60,30.07,29.96,16,1,16,0.38
2013-2-9,59.5,46.2,34.2,40.1,36.3,31.3,90,70,44,30.20,30.02,7,0,7,0.01
2013-2-10,57.4,47.7,37.9,41.7,38.2,32.5,84,70,53,30.20,30.10,9,0,9,0.00
2013-2-11,65.8,49.0,36.5,43.2,37.1,32.3,88,66,29,30.33,30.15,13,0,13,0.00
2013-2-12,67.0,49.9,35.7,39.5,31.4,26.3,79,53,25,30.44,30.30,12,0,12,0.00
2013-2-13,71.8,53.2,36.2,42.9,35.4,29.6,80,54,25,30.35,30.20,11,0,11,0.00
2013-2-14,79.7,57.1,38.5,43.6,38.1,32.7,83,54,23,30.28,30.12,7,0,7,0.00
2013-2-15,84.3,63.0,43.2,40.0,34.1,27.0,66,38,16,30.27,30.18,10,0,10,0.00
2013-2-16,85.1,64.9,50.5,34.4,29.2,23.4,47,28,15,30.24,30.03,6,0,14,0.00
2013-2-17,72.1,55.8,42.5,46.7,39.3,28.5,83,56,36,30.11,29.98,12,0,12,0.00
2013-2-18,68.2,55.2,49.7,47.3,44.5,41.5,82,68,44,30.15,30.01,10,0,10,0.00
2013-2-19,53.4,49.6,44.7,46.1,41.6,38.0,90,75,58,30.07,29.78,15,0,15,0.82
2013-2-20,62.3,49.6,38.3,42.1,35.8,30.1,90,62,37,30.09,29.77,18,1,18,0.00
2013-2-21,64.3,51.9,43.7,41.8,37.8,33.2,77,60,35,30.17,30.03,11,0,11,0.00
2013-2-22,68.8,52.0,36.9,42.7,35.1,29.9,79,56,30,30.29,30.17,13,0,13,0.00
2013-2-23,66.5,52.3,39.0,46.2,39.4,32.4,82,64,39,30.25,29.98,14,1,14,0.00
2013-2-24,68.5,53.1,40.3,43.2,33.3,24.5,88,53,21,30.28,30.06,14,0,14,0.00
2013-2-25,72.2,54.3,40.3,36.3,28.5,21.5,64,40,18,30.31,30.14,13,0,13,0.00
2013-2-26,76.6,54.8,35.6,43.6,33.9,28.1,75,49,18,30.20,30.05,9,0,9,0.00
2013-2-27,78.4,60.1,47.8,33.1,28.2,22.3,53,32,16,30.34,30.20,11,1,11,0.00
2013-2-28,83.4,62.5,45.8,33.8,28.3,23.4,48,30,14,30.39,30.29,10,0,10,0.00
2013-3-1,90.0,66.7,45.0,39.9,34.0,29.3,57,33,14,30.37,30.18,10,0,10,0.00
2013-3-2,87.2,68.0,50.5,40.7,35.3,30.9,51,32,16,30.28,30.12,10,0,10,0.00
2013-3-3,74.9,60.7,52.5,49.0,42.7,35.9,84,53,29,30.17,30.03,11,0,11,0.00
2013-3-4,72.5,59.2,51.4,51.1,49.2,47.2,86,71,43,30.17,30.07,14,0,14,0.00
2013-3-5,68.5,56.4,49.1,52.4,48.6,45.3,89,76,54,30.20,30.08,14,1,14,0.00
2013-3-6,67.8,56.4,49.5,47.7,44.3,41.8,83,65,44,30.23,30.08,15,1,15,0.00
2013-3-7,60.1,54.6,51.7,49.5,46.3,42.4,92,74,53,30.09,29.93,11,0,11,0.03
2013-3-8,60.4,51.2,45.0,46.7,43.1,37.5,90,75,47,30.11,29.85,15,1,15,0.83
2013-3-9,65.9,54.7,45.9,47.0,44.1,38.9,88,69,47,30.30,30.10,13,1,13,0.00
2013-3-10,75.0,57.6,40.8,45.2,39.2,33.7,86,55,23,30.35,30.22,12,1,12,0.00
2013-3-11,81.4,60.4,41.6,51.2,41.0,33.6,76,53,22,30.26,30.10,12,0,12,0.00
2013-3-12,86.0,64.1,44.5,48.6,44.0,38.6,85,54,23,30.16,30.05,11,0,11,0.00
2013-3-13,92.0,69.0,48.9,53.6,45.6,41.4,77,48,21,30.17,30.06,12,0,12,0.00
2013-3-14,90.8,67.6,48.5,57.7,49.8,45.1,90,58,27,30.15,30.05,14,1,14,0.00
2013-3-15,77.8,62.3,54.8,52.8,51.0,48.1,85,68,39,30.10,29.98,9,1,9,0.00
2013-3-16,74.0,59.5,52.5,53.4,50.3,48.1,89,74,44,30.04,29.93,12,1,12,0.00
2013-3-17,74.2,60.3,51.8,53.3,50.1,47.7,88,71,47,30.07,29.98,12,1,12,0.00
2013-3-18,67.3,58.0,52.5,52.9,49.8,46.9,83,75,57,30.16,30.05,10,0,10,0.00
2013-3-19,72.9,57.3,47.9,54.7,49.1,44.6,90,75,51,30.20,30.10,12,0,12,0.00
2013-3-20,73.3,60.6,50.6,55.0,50.3,47.0,89,70,49,30.19,30.03,11,0,11,0.00
2013-3-21,76.0,61.1,49.4,55.9,49.7,45.4,87,68,47,30.03,29.86,14,1,14,0.00
2013-3-22,75.8,60.3,51.3,53.9,49.7,45.9,88,70,44,29.99,29.87,13,1,13,0.00
2013-3-23,78.0,59.7,45.4,52.8,48.0,41.8,89,68,33,30.08,29.98,12,1,12,0.00
2013-3-24,82.8,62.0,47.4,53.8,48.2,43.3,92,65,27,30.09,29.94,13,0,13,0.00
2013-3-25,82.0,63.2,47.4,55.5,50.1,43.4,87,65,35,30.05,29.93,11,0,11,0.00
2013-3-26,76.5,61.5,52.3,53.9,51.0,48.5,92,71,41,30.04,29.94,12,1,12,0.00
2013-3-27,74.8,61.8,55.0,53.3,50.8,49.3,85,69,45,30.11,29.99,14,1,14,0.00
2013-3-28,78.5,62.5,52.8,55.7,51.3,48.2,87,69,40,30.14,30.05,13,1,13,0.00
2013-3-29,80.5,62.5,50.4,56.2,52.1,47.3,92,71,40,30.18,30.08,14,1,14,0.00
2013-3-30,78.0,63.2,55.0,56.0,51.6,44.2,87,68,32,30.19,30.09,13,1,13,0.00
2013-3-31,70.4,60.5,53.2,55.4,51.9,48.4,86,74,56,30.19,30.12,14,1,14,0.00
2013-4-1,65.6,58.5,53.3,52.2,50.0,46.9,87,74,55,30.24,30.13,12,1,12,0.00
2013-4-2,77.5,62.3,54.5,54.6,50.9,48.6,84,68,42,30.17,30.03,12,1,12,0.00
2013-4-3,82.5,63.9,50.2,55.9,51.7,46.3,90,68,37,30.16,30.03,12,1,12,0.00
2013-4-4,77.0,63.9,56.7,55.2,53.1,48.5,85,70,45,30.17,30.06,15,1,15,0.00
2013-4-5,70.8,62.3,57.4,55.6,53.8,52.4,87,74,57,30.15,30.05,12,1,12,0.00
2013-4-6,74.1,63.0,57.0,55.4,52.7,51.1,84,70,50,30.15,30.01,19,1,19,0.00
2013-4-7,76.5,61.0,49.7,56.2,51.6,46.3,89,73,47,30.05,29.88,13,1,13,0.00
2013-4-8,73.1,62.6,55.1,52.3,42.9,33.2,87,54,27,29.90,29.68,21,3,21,0.00
2013-4-9,80.3,64.7,50.8,38.9,33.8,25.3,53,34,14,30.07,29.88,18,2,18,0.00
2013-4-10,84.0,64.9,46.5,41.1,37.1,32.6,67,40,17,30.16,30.03,16,1,16,0.00
2013-4-11,79.8,63.1,47.3,52.2,43.7,36.3,79,52,23,30.07,29.83,19,1,19,0.00
2013-4-12,78.7,62.6,55.6,55.2,51.3,49.5,82,68,43,29.96,29.83,13,1,13,0.00
2013-4-13,66.5,59.2,55.4,54.3,52.0,49.6,83,77,65,29.98,29.89,11,1,11,0.00
2013-4-14,65.2,57.4,54.3,51.4,49.2,46.9,89,74,58,29.96,29.88,11,1,11,0.04
2013-4-15,63.0,56.5,52.8,53.3,49.7,46.2,90,79,64,29.98,29.90,12,1,12,0.04
2013-4-16,67.8,57.9,50.7,47.8,41.1,26.9,79,56,30,30.05,29.94,20,2,20,0.01
2013-4-17,76.2,60.4,43.6,35.6,30.3,24.4,64,35,16,30.19,30.05,21,2,21,0.01
2013-4-18,81.8,63.1,43.8,38.0,31.5,26.7,63,34,15,30.27,30.16,15,1,15,0.00
2013-4-19,57.1,17.1,47.2,34.8,-55.3,-99.9,58,17,37,30.23,30.03,3,-664,3,0.00
2013-4-20,-200.0,0.0,200.0,-99.9,-99.9,-99.9,0,0,100,30.07,29.93,0,-999,0,0.00
2013-4-21,-200.0,0.0,200.0,-99.9,-99.9,-99.9,0,0,100,30.08,29.98,0,-999,0,0.00
2013-4-22,-200.0,0.0,200.0,-99.9,-99.9,-99.9,0,0,100,30.08,29.94,0,-999,0,0.00
2013-4-23,-200.0,0.0,200.0,-99.9,-99.9,-99.9,0,0,100,30.04,29.90,0,-999,0,0.00
2013-4-24,-200.0,0.0,200.0,-99.9,-99.9,-99.9,0,0,100,30.06,29.96,0,-999,0,0.00
2013-4-25,-200.0,0.0,200.0,-99.9,-99.9,-99.9,0,0,100,30.18,30.03,0,-999,0,0.00
2013-4-26,-200.0,0.0,200.0,-99.9,-99.9,-99.9,0,0,100,30.22,30.15,0,-999,0,0.00
2013-4-27,-200.0,0.0,200.0,-99.9,-99.9,-99.9,0,0,100,30.22,30.05,0,-999,0,0.00
2013-4-28,-200.0,0.0,200.0,-99.9,-99.9,-99.9,0,0,100,30.09,29.91,0,-999,0,0.00
2013-4-29,-200.0,0.0,200.0,-99.9,-99.9,-99.9,0,0,100,29.97,29.83,0,-999,0,0.00
2013-4-30,-200.0,0.0,200.0,-99.9,-99.9,-99.9,0,0,100,29.97,29.87,0,-999,0,0.00
2013-5-1,-200.0,0.0,200.0,-99.9,-99.9,-99.9,0,0,100,30.16,29.96,0,-999,0,0.00
2013-5-2,72.9,6.4,69.4,44.8,-87.3,-99.9,39,3,24,30.19,30.05,3,-909,5,0.00
2013-5-3,98.3,77.5,55.8,40.2,35.0,29.1,45,24,11,30.07,29.82,13,1,13,0.00
2013-5-4,79.7,66.1,54.4,56.4,50.2,35.5,74,58,34,29.91,29.78,17,2,17,0.00
2013-5-5,67.8,61.8,57.3,52.7,50.2,48.4,80,66,55,30.02,29.89,17,2,17,0.00
2013-5-6,66.9,60.0,55.1,57.5,53.1,50.3,90,79,57,30.09,29.98,13,1,13,0.56
2013-5-7,71.5,62.9,55.6,53.4,50.2,46.1,86,65,45,30.14,30.05,12,1,12,0.04
2013-5-8,72.0,63.9,56.5,53.8,50.3,46.0,82,62,46,30.16,30.11,11,1,11,0.00
2013-5-9,78.3,63.2,51.8,57.6,52.6,46.3,89,70,44,30.17,30.07,13,1,13,0.13
2013-5-10,84.8,68.7,57.0,61.5,56.7,53.3,89,68,44,30.15,30.05,14,1,14,0.00
2013-5-11,94.7,73.3,57.9,65.1,58.8,53.5,89,64,33,30.13,30.02,13,1,13,0.00
2013-5-12,98.8,78.9,59.4,61.7,58.7,55.3,88,55,26,30.10,29.94,13,0,13,0.00
2013-5-13,101.5,83.1,64.4,61.6,56.5,50.6,77,44,22,30.00,29.89,15,1,15,0.00
2013-5-14,89.2,72.2,60.6,57.5,53.7,49.8,76,54,29,30.05,29.94,17,1,17,0.00
2013-5-15,81.8,67.2,58.5,57.5,54.4,51.4,82,65,41,30.08,29.99,11,1,11,0.00
2013-5-16,78.5,65.3,59.9,57.2,54.4,52.7,80,69,47,30.04,29.93,11,0,11,0.00
2013-5-17,75.2,66.1,60.4,57.4,54.9,51.6,82,68,52,30.06,29.97,14,1,14,0.00
2013-5-18,80.5,68.2,60.4,57.7,54.8,52.1,80,64,45,30.09,30.00,12,1,12,0.00
2013-5-19,83.0,68.3,54.8,59.8,55.0,49.8,86,64,41,30.05,29.92,13,1,13,0.00
2013-5-20,92.8,72.6,57.4,61.5,57.1,52.8,86,62,32,30.01,29.92,14,1,14,0.00
2013-5-21,89.1,71.4,62.8,62.8,58.9,56.2,84,67,37,29.99,29.86,12,1,12,0.00
2013-5-22,81.3,68.4,62.4,58.4,56.2,53.6,81,66,44,29.91,29.81,13,1,13,0.00
2013-5-23,77.1,65.9,58.8,54.8,52.6,48.6,78,63,44,29.99,29.87,12,1,12,0.00
2013-5-24,79.8,66.0,56.0,55.6,51.8,47.8,77,61,42,30.05,29.97,14,1,14,0.00
2013-5-25,79.2,65.8,56.6,55.7,51.9,49.6,80,63,38,30.08,30.01,12,1,12,0.00
2013-5-26,77.5,65.7,56.3,56.8,53.0,49.2,84,65,47,30.11,30.03,17,1,17,0.00
2013-5-27,81.8,67.6,57.1,59.0,55.0,51.8,83,66,43,30.06,29.91,16,1,16,0.00
2013-5-28,80.3,68.5,60.4,61.0,57.0,54.9,83,68,47,29.95,29.78,17,2,17,0.00
2013-5-29,85.5,70.9,58.7,62.2,57.1,54.3,86,65,35,29.87,29.75,15,2,15,0.00
2013-5-30,87.3,71.1,58.6,62.3,58.2,54.1,86,66,42,29.93,29.82,14,1,14,0.00
2013-5-31,87.7,71.6,63.2,61.8,59.1,57.3,82,67,41,29.96,29.84,11,1,11,0.00
2013-6-1,93.8,73.3,61.3,65.4,60.9,57.1,87,68,38,29.92,29.78,12,1,12,0.00
2013-6-2,81.7,69.7,62.6,63.4,59.6,55.3,84,71,52,29.88,29.81,14,1,14,0.00
2013-6-3,83.3,69.2,62.2,60.8,57.0,55.2,79,66,45,29.95,29.85,14,2,14,0.00
2013-6-4,81.9,67.7,61.7,58.9,56.6,55.3,82,69,43,30.03,29.93,13,1,13,0.00
2013-6-5,82.8,68.2,60.2,59.2,56.3,54.5,82,67,42,30.06,29.94,12,1,12,0.00
2013-6-6,83.2,68.5,59.5,60.9,57.1,54.3,85,69,46,30.01,29.91,12,1,12,0.00
2013-6-7,84.3,68.4,60.2,62.6,57.5,55.0,83,70,46,29.97,29.82,13,1,13,0.00
2013-6-8,81.8,69.0,61.6,61.7,58.0,55.7,82,69,50,29.96,29.84,12,2,12,0.00
2013-6-9,83.8,69.2,61.2,61.9,57.7,54.3,80,68,47,29.98,29.91,12,1,12,0.00
2013-6-10,84.4,69.8,60.5,58.3,55.9,54.3,80,63,40,30.01,29.94,14,1,14,0.00
2013-6-11,92.0,72.6,58.4,62.5,57.7,54.5,88,63,31,29.99,29.92,12,1,12,0.00
2013-6-12,83.3,69.6,63.0,63.1,59.2,55.8,84,71,50,30.07,29.97,14,2,14,0.00
2013-6-13,86.3,71.3,62.7,61.0,58.1,56.1,80,65,41,30.06,29.93,12,1,12,0.00
2013-6-14,80.6,67.8,61.2,59.1,56.0,54.3,79,67,48,29.95,29.88,12,1,12,0.00
2013-6-15,83.8,69.0,61.1,59.5,56.0,54.3,80,65,39,30.03,29.95,13,2,13,0.00
2013-6-16,86.5,70.2,59.6,60.9,56.4,52.1,84,64,37,30.09,29.98,13,1,13,0.00
2013-6-17,88.6,71.8,58.2,61.9,57.8,53.9,88,64,38,30.04,29.93,12,1,12,0.00
2013-6-18,87.4,71.8,60.0,61.7,57.9,54.3,88,64,40,29.97,29.87,13,1,13,0.00
2013-6-19,84.5,71.6,59.0,60.0,55.6,49.5,88,60,39,29.93,29.83,15,1,15,0.00
2013-6-20,88.1,72.7,59.0,60.7,55.4,49.8,87,58,35,29.91,29.84,13,1,13,0.00
2013-6-21,87.3,73.0,59.6,60.0,56.5,50.4,87,59,37,29.95,29.87,13,1,13,0.00
2013-6-22,85.6,71.8,59.8,61.0,58.0,55.0,87,64,42,29.96,29.85,13,1,13,0.00
2013-6-23,81.1,69.4,63.3,59.7,57.5,55.8,81,67,46,29.93,29.83,12,2,12,0.00
2013-6-24,79.2,68.4,62.8,59.4,57.1,54.9,79,68,51,30.00,29.88,10,1,10,0.00
2013-6-25,82.0,71.1,62.1,63.2,59.7,56.4,86,69,52,30.06,29.94,11,1,11,0.00
2013-6-26,93.3,77.3,62.3,67.1,61.9,57.4,87,62,41,30.03,29.93,14,1,14,0.00
2013-6-27,98.1,80.8,66.1,68.0,63.4,59.3,84,58,34,30.07,30.00,11,1,11,0.00
2013-6-28,99.8,81.7,65.3,69.0,63.3,60.2,85,57,34,30.03,29.90,13,1,13,0.00
2013-6-29,103.0,83.8,67.9,69.2,63.4,60.4,78,53,33,29.93,29.77,15,1,15,0.00
2013-6-30,98.5,81.3,69.9,69.7,64.3,60.6,79,58,37,29.86,29.75,15,1,15,0.00
2013-7-1,101.2,80.6,68.3,67.8,64.0,59.3,83,61,30,29.93,29.83,13,1,13,0.00
2013-7-2,91.0,76.9,67.2,68.0,63.6,61.3,82,65,42,30.02,29.92,15,1,15,0.00
2013-7-3,91.8,75.9,64.8,66.8,62.9,60.4,88,66,38,29.98,29.84,12,1,12,0.00
2013-7-4,94.5,75.8,64.0,65.7,61.7,59.3,87,65,36,29.88,29.78,12,1,12,0.00
2013-7-5,87.8,74.8,64.4,64.5,61.5,58.8,83,65,44,29.90,29.79,12,1,12,0.00
2013-7-6,91.0,79.7,66.6,66.0,63.0,60.2,80,59,42,29.86,29.78,13,2,13,0.00
2013-7-7,90.7,75.6,66.0,66.8,62.4,59.6,82,66,44,29.91,29.80,11,1,11,0.00
2013-7-8,96.1,76.9,62.3,66.8,61.0,57.0,87,61,34,29.97,29.88,10,1,11,0.00
2013-7-9,93.7,78.6,64.3,67.1,62.1,58.0,81,59,39,30.02,29.93,12,1,12,0.00
2013-7-10,87.5,76.3,68.9,65.7,62.8,60.3,78,64,43,30.01,29.94,10,1,10,0.00
2013-7-11,81.2,74.2,69.4,66.4,64.3,62.8,82,72,58,30.02,29.93,10,1,10,0.00
2013-7-12,91.8,75.7,66.8,67.9,63.3,59.1,86,68,41,29.99,29.88,11,1,11,0.00
2013-7-13,91.3,74.2,61.7,64.9,60.3,57.1,87,65,38,30.01,29.89,13,1,13,0.00
2013-7-14,92.2,74.3,63.0,65.3,60.9,57.6,84,65,39,29.99,29.85,11,1,11,0.00
2013-7-15,92.3,76.4,65.2,66.0,59.9,51.1,88,60,35,29.92,29.83,13,1,13,0.00
2013-7-16,93.1,74.1,57.9,60.4,53.4,47.1,83,53,24,30.04,29.91,12,1,12,0.00
2013-7-17,94.8,75.2,56.4,57.1,51.2,46.3,80,48,21,30.07,29.98,13,1,13,0.00
2013-7-18,93.0,74.1,58.9,63.3,56.8,52.1,82,57,34,30.03,29.89,13,1,13,0.00
2013-7-19,92.3,74.5,61.8,64.1,60.2,55.7,86,63,38,29.95,29.85,13,1,13,0.00
2013-7-20,86.3,71.3,65.2,66.3,61.6,59.2,83,72,51,29.95,29.83,10,1,10,0.00
2013-7-21,78.2,70.3,64.9,64.5,61.8,59.4,83,75,62,29.98,29.84,9,1,9,0.00
2013-7-22,92.3,76.1,65.7,67.5,62.9,60.3,84,66,44,30.02,29.95,12,1,12,0.00
2013-7-23,89.9,74.7,65.0,64.9,60.6,55.9,83,63,43,30.07,29.96,12,1,12,0.00
2013-7-24,88.8,73.2,62.3,64.7,60.0,57.3,86,66,44,30.03,29.93,13,1,13,0.00
2013-7-25,91.1,73.7,62.4,65.7,60.3,56.8,85,65,42,30.06,29.96,13,1,13,0.00
2013-7-26,89.2,74.1,64.1,66.5,61.4,57.6,81,66,46,30.14,30.00,10,1,10,0.00
2013-7-27,90.5,74.2,64.4,66.3,60.9,57.7,80,65,44,30.06,29.91,13,1,13,0.00
2013-7-28,86.3,70.7,62.6,63.4,59.4,56.8,83,69,43,29.98,29.90,12,1,12,0.00
2013-7-29,88.4,71.9,62.8,61.5,58.1,55.1,81,64,38,30.09,29.97,10,1,10,0.00
2013-7-30,87.3,70.4,60.0,61.9,57.5,54.6,85,66,40,30.17,30.07,12,1,12,0.00
2013-7-31,82.8,68.5,60.2,61.2,57.3,54.8,85,69,48,30.17,30.03,12,1,12,0.00
2013-8-1,85.4,69.4,60.4,60.1,57.0,54.7,84,67,41,30.08,29.94,12,1,12,0.00
2013-8-2,87.2,71.3,59.8,61.6,58.6,55.0,86,66,41,30.03,29.93,11,1,11,0.00
2013-8-3,89.2,72.1,63.4,62.8,59.5,57.1,83,67,40,30.05,29.95,11,1,11,0.00
2013-8-4,88.2,71.1,60.8,63.1,58.8,56.0,85,68,38,30.07,29.96,12,1,12,0.00
2013-8-5,90.3,71.3,58.8,60.5,57.0,54.0,89,65,34,30.06,29.95,11,1,11,0.00
2013-8-6,87.5,71.4,60.7,60.7,57.1,54.0,84,64,33,30.08,30.00,13,1,13,0.00
2013-8-7,87.4,69.6,59.0,60.4,57.1,54.8,88,67,36,30.14,30.01,11,1,11,0.00
2013-8-8,88.8,70.5,57.2,61.6,57.3,53.7,89,66,35,30.05,29.94,12,1,12,0.00
2013-8-9,86.0,69.5,57.2,60.0,56.8,53.0,88,67,36,30.02,29.94,12,1,12,0.00
2013-8-10,84.0,70.3,60.0,59.9,57.2,53.2,85,66,43,30.08,29.99,13,1,13,0.00
2013-8-12,64.9,63.9,62.8,58.0,57.6,57.3,83,80,78,30.00,29.99,3,0,3,0.00
2013-8-13,92.7,73.3,61.6,64.0,60.2,57.0,86,66,37,30.03,29.90,12,1,12,0.00
2013-8-14,94.8,73.9,62.6,66.5,61.3,58.1,86,68,37,29.98,29.86,13,1,13,0.00
2013-8-15,96.0,78.1,62.2,66.3,61.8,58.1,87,61,35,30.00,29.91,12,1,12,0.00
2013-8-16,94.0,77.9,63.8,65.4,60.2,53.6,87,58,31,30.00,29.93,12,1,12,0.00
2013-8-17,95.5,77.1,64.0,65.2,58.9,53.1,84,57,29,29.99,29.84,14,1,14,0.00
2013-8-18,91.0,74.3,61.9,64.7,60.4,57.3,86,64,38,29.96,29.84,13,1,13,0.00
2013-8-19,91.0,73.5,64.0,65.7,61.4,58.4,85,68,41,29.99,29.88,12,1,12,0.00
2013-8-20,92.7,73.7,61.9,64.9,60.3,57.8,88,66,34,29.98,29.87,11,1,11,0.00
2013-8-25,94.5,83.4,71.2,64.7,59.3,52.6,61,45,30,29.96,29.88,11,2,11,0.00
2013-8-26,81.5,74.2,68.1,58.1,54.2,48.7,70,52,34,29.95,29.87,3,0,3,0.00
2013-8-27,96.2,82.5,70.8,66.7,58.6,48.6,67,45,32,29.88,29.79,12,1,12,0.00
2013-8-28,82.3,79.2,75.7,53.7,51.2,48.9,45,38,33,29.93,29.89,3,0,3,0.00
2013-8-29,104.6,85.9,69.7,68.3,58.5,52.4,64,42,25,29.97,29.89,12,1,12,0.00
2013-8-30,99.3,88.3,79.1,73.3,67.2,55.7,61,50,39,30.00,29.93,13,1,13,0.00
2013-8-31,96.6,85.1,76.9,71.6,68.2,64.2,70,58,44,30.00,29.89,13,1,13,0.00
2013-9-1,94.7,81.3,73.2,70.6,67.4,64.5,77,64,45,29.97,29.88,13,1,13,0.00
2013-9-2,95.5,80.9,69.6,70.1,66.7,64.2,84,64,42,29.97,29.84,13,1,13,0.00
2013-9-3,101.7,84.2,71.7,69.1,65.2,60.2,80,56,30,29.94,29.85,13,1,13,0.00
2013-9-4,81.6,75.5,71.8,64.3,63.2,61.1,75,66,50,29.94,29.90,3,0,3,0.00
2013-9-5,103.7,86.5,71.9,66.2,61.3,54.5,69,46,26,29.92,29.84,13,1,13,0.00
2013-9-6,104.5,86.2,70.6,63.6,59.0,54.1,68,43,24,29.90,29.81,12,1,12,0.00
2013-9-7,103.2,85.0,71.5,66.6,59.1,50.4,63,44,25,29.89,29.81,14,1,14,0.00
2013-9-8,95.0,77.5,65.8,63.5,59.1,53.2,81,56,31,29.89,29.78,12,1,12,0.00
2013-9-9,88.5,73.5,65.4,62.8,58.5,54.9,76,61,39,29.86,29.77,12,1,12,0.00
2013-9-10,87.5,70.7,60.0,61.6,58.3,55.8,87,67,41,29.98,29.86,11,0,11,0.00
2013-9-12,67.4,66.0,65.0,57.1,56.7,56.3,74,72,69,29.89,29.88,0,0,5,0.00
2013-9-13,93.5,75.6,59.5,61.9,57.2,53.7,82,57,32,29.89,29.71,10,0,10,0.00
2013-9-14,96.2,77.6,62.9,66.2,59.6,56.5,84,57,32,29.76,29.66,12,1,12,0.00
2013-9-15,99.0,77.5,62.7,65.4,59.7,56.4,84,57,31,29.82,29.73,12,1,12,0.00
2013-9-16,98.5,77.4,63.0,63.2,58.3,55.6,81,56,28,29.87,29.76,12,1,12,0.00
2013-9-17,87.7,70.5,60.1,62.7,59.1,55.3,90,70,40,29.87,29.76,11,1,11,0.00
2013-9-18,84.4,70.1,62.1,60.5,58.3,54.2,85,68,43,29.87,29.78,10,1,10,0.00
2013-9-19,87.2,69.6,57.8,63.4,59.3,54.2,89,72,44,29.89,29.79,11,1,11,0.00
2013-9-20,77.4,68.8,65.1,62.9,60.2,58.7,82,74,59,29.94,29.87,7,1,12,0.00
2013-9-21,81.3,68.6,62.4,60.1,58.3,56.1,89,71,45,29.97,29.84,12,1,12,0.01
2013-9-22,81.5,68.1,58.0,57.1,53.7,48.8,87,63,39,29.90,29.82,12,0,12,0.00
2013-9-23,97.3,74.8,55.5,54.5,49.4,44.9,78,46,19,29.94,29.84,10,0,10,0.00
2013-9-24,91.3,74.1,57.8,54.4,48.6,44.3,65,44,22,29.97,29.87,7,1,13,0.00
2013-9-25,80.9,68.0,57.0,60.2,53.4,44.7,77,61,43,29.91,29.75,13,1,13,0.00
2013-9-26,78.3,66.9,59.0,55.9,49.3,40.5,85,56,28,29.94,29.78,14,1,14,0.08
2013-9-27,87.1,67.6,51.6,48.5,41.9,36.8,70,43,19,30.04,29.94,11,1,11,0.00
2013-9-28,93.5,71.3,51.5,43.0,38.2,32.8,58,34,14,30.09,29.99,12,0,12,0.00
2013-9-29,92.5,71.0,52.9,48.9,41.8,36.0,60,38,15,30.12,30.00,7,1,11,0.00
2013-9-30,89.3,70.3,51.7,54.5,46.6,40.6,70,46,21,30.05,29.90,13,0,13,0.00
2013-10-1,86.2,69.8,54.6,58.9,53.5,46.3,83,59,34,29.99,29.90,11,1,11,0.00
2013-10-2,81.2,67.8,61.9,59.2,57.2,55.3,83,70,45,30.03,29.91,10,1,10,0.00
2013-10-3,78.2,67.3,62.4,58.7,57.1,55.3,83,71,48,29.98,29.86,12,1,12,0.00
2013-10-4,92.3,72.6,59.7,57.5,44.5,20.8,82,47,9,30.09,29.94,17,1,17,0.00
2013-10-5,94.2,72.8,52.5,40.4,35.1,30.6,50,29,12,30.17,30.07,12,0,12,0.00
2013-10-6,95.8,73.3,53.5,39.0,34.1,28.3,46,27,11,30.15,30.00,11,0,11,0.00
2013-10-7,89.1,69.9,55.9,55.0,42.0,34.7,82,40,18,30.02,29.93,11,0,11,0.00
2013-10-8,77.8,63.6,51.0,56.2,51.0,41.1,81,64,43,29.99,29.87,13,1,13,0.00
2013-10-9,64.1,58.9,51.0,54.2,49.3,44.3,84,71,55,29.89,29.77,17,1,17,0.10
2013-10-10,71.2,58.1,46.0,49.2,45.9,41.7,87,66,40,30.08,29.87,12,0,12,0.01
2013-10-11,80.0,62.2,48.5,52.9,48.9,42.8,83,65,34,30.11,29.99,10,1,10,0.00
2013-10-12,80.5,63.3,49.3,56.0,51.1,45.3,88,68,38,30.03,29.93,11,1,11,0.00
2013-10-13,74.3,63.1,55.3,54.1,51.6,48.4,88,67,47,30.09,29.99,11,1,11,0.00
2013-10-14,88.6,67.7,49.7,52.9,47.9,40.4,87,56,21,30.09,29.94,9,0,9,0.00
2013-10-15,89.8,70.0,52.3,44.1,39.7,35.4,60,37,17,30.03,29.90,13,0,13,0.00
2013-10-16,88.0,69.7,52.1,41.9,36.4,32.9,52,32,16,30.12,30.02,11,1,11,0.00
2013-10-17,86.3,67.6,50.4,47.7,39.9,33.8,62,39,19,30.09,29.96,14,0,14,0.00
2013-10-18,89.8,67.9,49.9,53.3,45.7,39.4,70,49,20,30.07,29.97,9,0,9,0.00
2013-10-19,91.5,69.1,50.2,53.5,46.3,39.6,76,50,19,30.07,29.99,10,0,10,0.00
2013-10-20,83.8,64.3,48.7,58.9,50.7,41.3,84,64,35,30.04,29.94,11,0,11,0.00
2013-10-21,83.2,64.0,52.4,56.5,52.7,48.9,91,71,34,30.04,29.94,7,0,7,0.00
2013-10-22,83.0,63.1,50.7,57.3,53.3,47.0,90,73,40,30.06,29.94,9,1,9,0.01
2013-10-23,74.3,62.4,55.3,57.0,54.0,51.2,88,75,53,30.03,29.94,11,1,11,0.00
2013-10-24,73.5,62.8,55.5,55.9,53.6,51.1,86,73,53,30.12,30.01,8,0,8,0.00
2013-10-25,78.8,63.1,52.4,57.6,53.7,48.9,89,73,47,30.20,30.05,7,0,7,0.00
2013-10-26,83.2,64.1,49.7,58.0,53.8,46.6,91,72,38,30.15,30.01,7,0,7,0.00
2013-10-27,77.8,61.0,49.2,59.3,53.6,45.4,89,78,52,30.04,29.86,10,1,10,0.00
2013-10-28,68.6,59.5,53.9,54.3,49.9,43.8,86,72,42,30.01,29.87,19,2,19,0.09
2013-10-29,68.0,56.9,46.1,50.1,47.3,43.3,94,72,46,30.08,29.99,11,1,11,0.02
2013-10-30,75.0,59.6,48.1,50.1,46.8,43.1,85,65,35,30.14,30.03,9,0,9,0.00
2013-10-31,83.5,63.2,46.7,46.1,42.1,37.9,79,52,20,30.16,30.03,5,0,7,0.00
2013-11-1,89.8,67.0,47.3,44.9,39.7,37.1,69,41,17,30.17,29.98,6,0,6,0.00
2013-11-2,85.3,66.4,50.0,54.8,42.7,35.5,85,46,20,30.05,29.91,16,1,16,0.00
2013-11-3,73.7,60.6,51.2,54.1,50.3,42.9,86,70,48,30.00,29.87,11,0,11,0.00
2013-11-4,66.9,60.1,53.3,52.6,51.3,48.4,86,73,56,30.01,29.86,7,1,10,0.00
2013-11-5,78.5,61.0,45.8,51.8,41.4,31.3,88,55,20,30.21,30.01,10,0,10,0.00
2013-11-6,86.0,65.9,50.1,37.1,30.1,24.3,47,28,14,30.28,30.16,6,0,6,0.00
2013-11-7,89.0,68.8,53.6,40.1,33.3,25.9,45,29,12,30.19,30.03,7,0,7,0.00
2013-11-8,82.2,63.9,47.7,46.2,38.4,32.5,67,42,20,30.10,29.98,7,0,7,0.00
2013-11-9,80.8,61.2,44.6,47.1,41.2,37.3,87,53,22,30.14,30.05,7,0,7,0.00
2013-11-17,70.8,58.7,52.2,52.0,50.2,47.4,85,74,48,30.16,30.05,10,0,10,0.00
2013-11-18,70.0,57.8,46.6,53.1,49.4,42.9,89,75,54,30.23,30.10,9,0,9,0.00
2013-11-19,65.7,59.5,54.0,52.9,51.0,49.4,86,74,59,30.15,30.01,7,0,7,0.00
2013-11-20,65.1,59.2,54.3,54.3,51.8,49.6,90,77,63,30.04,29.95,6,0,6,0.11
2013-11-21,66.0,58.5,53.3,57.9,54.1,49.6,92,86,67,29.96,29.89,11,1,11,0.34
2013-11-22,62.9,54.4,49.1,50.2,45.7,40.4,92,74,47,30.03,29.90,9,0,9,0.03
2013-11-23,68.7,55.8,47.9,44.8,41.1,38.9,76,59,37,30.16,30.02,10,0,10,0.00
2013-11-24,69.5,55.3,44.3,44.1,41.4,37.6,79,62,37,30.26,30.16,6,0,6,0.00
2013-11-25,74.5,57.1,43.3,47.3,42.2,37.5,82,61,32,30.31,30.21,7,0,7,0.00
2013-11-26,77.8,60.8,44.2,45.4,40.7,37.9,81,52,25,30.27,30.10,7,0,7,0.00
2013-11-27,78.5,62.7,50.7,43.1,39.9,36.5,65,45,25,30.11,29.93,9,0,9,0.00
2013-11-28,74.7,59.4,47.2,48.8,41.7,35.9,75,54,30,30.12,29.96,13,0,13,0.00
2013-11-29,63.2,57.1,51.9,53.0,48.6,43.5,87,74,62,30.28,30.12,11,0,11,0.23
2013-11-30,77.7,60.5,47.7,50.6,46.7,42.9,85,63,35,30.26,30.13,4,0,7,0.00
2013-12-1,82.8,61.7,46.4,47.5,40.3,35.9,75,49,22,30.29,30.15,5,0,5,0.00
2013-12-2,76.5,58.3,45.0,43.1,38.2,33.8,68,50,25,30.19,29.98,5,0,5,0.00
2013-12-3,66.7,55.6,43.2,51.7,44.7,34.9,79,67,53,29.99,29.81,7,1,11,0.00
2013-12-4,63.3,52.9,44.2,44.5,38.2,29.8,86,60,30,30.04,29.84,11,1,11,0.00
2013-12-5,61.4,50.0,40.0,39.2,35.3,31.5,78,59,34,30.19,30.03,12,0,12,0.00
2013-12-6,58.5,48.7,39.7,40.4,37.2,32.9,78,65,51,30.26,30.16,8,0,8,0.00
2013-12-7,52.6,46.0,41.3,46.6,40.6,35.6,92,81,68,30.20,30.07,5,0,5,0.12
2013-12-8,58.7,45.8,34.4,41.7,35.8,31.1,89,70,45,30.29,30.17,11,1,11,0.01
2013-12-9,62.0,45.8,33.2,35.0,28.9,18.3,79,55,26,30.38,30.27,9,0,9,0.00
2013-12-10,66.4,48.9,34.4,25.6,20.4,15.4,54,35,15,30.36,30.16,7,0,7,0.00
2013-12-11,75.3,54.3,34.4,28.9,24.5,19.0,61,34,17,30.25,30.17,7,0,7,0.00
2013-12-12,70.3,55.0,41.2,44.8,35.1,23.6,78,49,28,30.28,30.19,9,0,9,0.00
2013-12-13,67.3,51.4,38.3,44.4,38.4,32.8,81,64,37,30.30,30.19,7,0,7,0.00
2013-12-14,76.5,54.9,38.2,41.3,33.7,28.9,88,50,20,30.37,30.26,6,0,6,0.00
2013-12-15,82.8,60.5,42.0,37.4,30.6,25.6,57,35,16,30.33,30.14,5,0,5,0.00
2013-12-16,89.3,67.4,51.7,45.6,35.6,29.2,48,33,15,30.20,30.10,9,0,9,0.00
2013-12-17,83.8,66.0,50.4,45.6,40.2,34.3,56,41,20,30.18,30.06,6,0,6,0.00
2013-12-18,75.3,61.6,53.9,53.1,47.6,43.1,81,62,34,30.07,29.91,12,0,12,0.00
2013-12-19,56.6,50.8,43.0,48.8,45.3,40.0,90,82,71,29.93,29.78,9,0,9,0.38
2013-12-20,64.4,49.9,38.7,47.3,42.2,36.0,91,77,48,30.03,29.84,7,0,7,0.01
2013-12-21,61.7,50.4,42.0,47.3,42.8,38.1,87,76,55,30.17,30.00,7,0,7,0.00
2013-12-22,73.5,53.4,40.6,48.8,43.6,37.0,89,72,36,30.34,30.17,4,0,5,0.01
2013-12-23,77.0,57.4,41.6,46.3,40.3,36.6,83,57,27,30.40,30.26,5,0,5,0.00
2013-12-24,81.0,60.9,45.0,42.3,38.7,34.6,69,47,24,30.27,30.14,5,0,5,0.00
2013-12-25,81.5,59.8,42.6,40.9,33.0,23.6,67,41,17,30.28,30.17,7,0,7,0.00
2013-12-26,80.5,60.4,43.9,31.5,26.7,22.5,48,30,14,30.25,30.13,6,0,9,0.00
2013-12-27,85.4,61.2,41.6,33.4,27.6,22.0,50,31,12,30.23,30.09,6,0,6,0.00
2013-12-28,78.0,59.9,45.6,46.4,35.5,26.4,81,44,17,30.11,29.97,8,0,8,0.00
2013-12-29,76.0,55.4,38.6,41.4,32.6,25.9,86,48,18,30.23,30.07,6,0,6,0.00
2013-12-30,77.1,56.3,41.0,32.4,26.7,21.5,53,35,15,30.34,30.22,3,0,5,0.00
2013-12-31,75.7,55.0,40.1,42.9,31.5,23.8,69,44,20,30.27,30.14,6,0,6,0.00
2014-1-1,77.8,55.2,38.3,40.9,35.4,29.8,73,51,20,30.21,30.10,5,0,5,0.00
2014-1-2,84.3,62.8,45.6,43.8,35.5,29.4,59,39,18,30.18,30.04,7,0,7,0.00